Location: Campestrin
(46.4667°N, 11.7167°E)
Time: 10:36:23
(UTC+00:00)

SPOT 3 Rocket - Pass Details

Date: 18 April 2021
Orbit: 778 x 795 km, 98.7° (Epoch: 07 May)

Event Time Altitude Azimuth Distance (km) Brightness Sun altitude
Exits shadow 20:03:45 21° 178° (S) 1,708 4.9 -18.6°
Maximum altitude 20:07:14 68° 257° (WSW) 850 3.8 -19.1°
Drops below altitude 10° 20:12:25 10° 341° (NNW) 2,356 6.9 -19.8°
Sets 20:14:46 0° 344° (NNW) 3,286 7.8 -20.1°
